Location: ???????
(55.4362°N, 38.1183°E)
Time: 02:33:29
(UTC+00:00)

Cosmos 1932 - Pass Details

Date: 17 June 2021
Orbit: 942 x 988 km, 65.0° (Epoch: 26 July)

Event Time Altitude Azimuth Distance (km) Brightness Sun altitude
Rises 22:15:56 0° 312° (NW) 3,637 8.0 -10.5°
Reaches altitude 10° 22:18:29 10° 312° (NW) 2,683 7.2 -10.4°
Maximum altitude 22:24:44 77° 228° (SW) 972 4.4 -10.3°
Drops below altitude 10° 22:30:56 10° 143° (SE) 2,655 6.4 -10.0°
Sets 22:33:27 0° 142° (SE) 3,597 7.1 -10.0°
